ECMWFNIL_500_spd_132.txt.gz
Wind_Speed
42 42 42 41 42 42 42 42 42 42 43 43 44 44 45 45 45 45 45 45 45 44 43 42 42 42 42 42 43 43 43 43 44 45 45 45 46 45 45 46 46 46
40 40 41 41 42 42 42 43 43 44 45 45 46 46 46 46 47 47 46 47 46 45 45 44 43 43 43 44 44 44 44 44 45 46 46 46 46 46 46 46 46 46
37 38 38 39 40 41 41 42 43 43 44 45 45 46 47 47 48 48 48 48 47 46 46 45 44 44 44 45 45 44 44 45 46 46 46 46 46 46 46 46 46 45
37 37 38 38 39 39 40 41 41 40 41 42 43 44 45 46 48 48 48 48 47 46 46 45 45 44 45 45 44 44 44 45 46 46 46 46 47 47 46 46 45 43
38 38 39 39 39 40 41 40 40 39 39 40 40 42 43 45 46 46 46 46 46 45 44 44 44 44 45 45 44 44 44 45 46 46 46 46 47 46 45 44 43 43
39 39 40 41 41 41 41 41 40 40 39 39 39 39 41 42 43 43 43 44 44 44 44 44 45 45 45 45 44 44 44 45 46 46 46 46 47 46 45 44 43 44
41 41 42 42 42 42 42 42 41 41 40 40 40 40 40 41 41 42 43 44 45 45 46 46 46 45 45 45 44 43 43 44 46 47 47 47 47 46 44 43 44 45
44 44 44 44 43 43 43 43 43 43 43 43 42 42 42 43 43 44 45 46 46 46 46 46 45 45 45 45 44 43 44 45 47 48 48 48 47 45 44 44 45 46
46 46 46 46 45 44 44 44 45 45 45 45 45 45 45 45 46 46 46 46 46 46 45 45 45 45 45 45 45 45 45 47 48 48 48 48 47 45 45 46 47 47
46 47 48 48 47 46 46 47 47 47 47 46 47 47 47 47 47 47 47 47 47 46 45 45 45 46 46 46 47 47 47 48 49 49 48 48 47 46 46 47 47 47
47 48 48 49 49 49 48 48 48 48 48 48 48 48 48 48 48 48 48 48 47 46 46 46 46 47 48 48 48 49 49 49 49 49 49 48 47 47 47 47 47 47
49 50 50 50 51 50 50 50 49 49 49 49 49 49 50 50 50 50 49 49 48 48 48 48 48 49 49 50 50 50 50 50 50 50 49 48 48 48 47 47 47 47
52 52 52 52 52 52 51 51 51 51 51 51 51 51 51 51 51 51 51 51 50 51 50 51 51 51 51 51 51 51 52 52 51 50 49 48 48 48 48 48 48 47
58 55 54 54 54 53 53 52 52 52 52 52 53 53 53 53 53 53 53 53 53 53 53 53 53 53 53 52 52 53 53 53 52 51 49 48 48 48 49 49 48 48
61 59 57 57 57 56 55 54 54 54 54 54 55 55 55 55 55 55 55 55 55 55 55 55 55 55 54 53 54 54 54 53 52 50 48 48 48 49 50 50 49 48
62 61 59 59 59 60 59 59 58 58 57 56 57 57 58 58 58 57 57 57 57 57 57 57 57 56 55 55 55 55 55 53 51 50 48 49 50 51 51 51 50 49
60 60 59 60 61 62 62 62 62 62 61 60 59 59 60 60 60 59 59 60 60 60 60 59 59 57 57 56 56 56 55 53 51 50 49 50 51 52 52 51 50 49
59 58 59 60 61 62 62 63 63 62 62 62 61 61 61 61 61 61 61 62 62 62 61 61 60 59 58 57 57 56 55 54 52 52 51 51 52 52 51 51 51 50
59 58 59 60 60 60 61 61 61 62 62 63 63 63 62 62 62 63 63 63 64 63 63 63 62 61 60 60 59 58 57 56 55 54 52 51 52 52 51 51 51 50
60 60 60 60 60 60 60 60 61 61 62 63 63 63 64 64 64 64 65 65 65 64 64 64 64 63 63 63 62 61 60 58 56 54 52 51 51 51 51 51 51 51
62 62 62 61 61 62 62 62 62 62 63 63 64 64 65 65 65 66 66 66 66 66 66 66 66 65 65 64 63 62 60 58 55 53 51 51 51 52 51 52 52 52
62 63 63 63 63 64 64 65 65 65 65 66 65 66 66 66 67 67 68 68 68 68 68 67 67 66 65 63 62 61 59 56 53 52 51 52 52 52 52 53 53 53
63 62 62 63 64 64 66 68 69 68 68 69 68 68 68 69 69 69 70 70 69 69 69 68 68 67 65 62 60 58 56 54 53 52 52 53 53 53 53 53 53 53
63 62 62 63 65 65 64 67 69 70 71 71 72 72 72 72 72 71 71 71 71 71 71 70 69 67 64 62 59 56 54 53 52 52 53 54 54 54 54 54 54 55
62 63 63 63 65 67 66 66 67 69 70 71 73 74 74 74 74 73 73 73 73 73 73 72 71 69 66 64 61 58 56 54 53 53 54 55 55 55 55 56 56 56
63 63 63 63 65 66 67 66 67 68 69 70 72 73 74 74 74 74 73 73 73 73 73 72 71 69 68 66 63 60 58 56 55 54 55 55 55 56 56 57 57 57

ECMWFNIL_500_spd_135.txt.gz
Wind_Speed
43 44 44 43 43 43 43 43 44 44 44 45 46 47 47 47 48 48 48 48 49 49 48 48 47 46 45 45 44 44 44 44 43 43 44 45 45 45 45 46 46 47
45 45 45 45 44 43 43 43 44 44 44 44 45 46 47 48 49 49 49 50 51 51 51 50 49 48 47 46 46 45 45 44 44 45 46 46 46 46 46 47 47 48
46 47 46 45 44 44 43 44 44 44 43 43 43 43 45 46 47 47 48 50 51 52 51 51 50 49 48 47 47 46 45 44 45 45 46 47 47 47 47 48 48 48
49 49 47 46 45 44 44 44 44 44 43 43 42 42 43 44 44 44 45 48 49 49 50 50 49 48 48 48 47 46 45 44 44 45 46 47 48 48 48 48 49 49
51 51 50 48 47 46 46 45 45 44 44 43 43 43 43 44 44 44 45 46 47 47 48 48 48 48 47 47 47 45 45 44 44 45 46 47 48 49 49 49 49 48
53 53 53 52 51 50 48 47 46 46 46 45 45 45 45 45 45 45 45 45 45 46 46 47 47 46 46 46 46 45 45 45 46 46 47 47 49 49 49 49 48 48
54 55 55 55 54 53 52 50 49 48 48 47 47 47 47 47 47 47 47 46 46 46 46 46 46 46 46 46 47 47 47 48 48 48 47 47 48 49 49 49 49 49
55 56 56 57 56 56 55 55 53 52 51 50 49 48 48 48 48 48 48 47 47 47 47 47 47 47 48 48 49 49 49 49 49 48 48 47 48 49 49 50 50 50
56 56 57 57 57 57 57 57 57 56 55 53 51 50 50 50 50 49 49 49 49 48 48 48 49 49 50 50 50 50 50 50 50 49 49 49 49 49 50 51 51 51
57 57 58 58 58 58 58 58 58 58 57 55 54 53 52 52 52 51 51 50 50 49 49 50 50 51 51 51 52 52 52 52 51 51 51 51 51 51 52 52 52 52
58 59 59 59 59 59 59 59 58 58 58 56 55 54 53 53 53 53 53 52 52 51 51 52 52 52 52 52 53 53 52 53 52 52 53 52 52 52 53 54 53 52
60 61 61 61 61 61 60 60 58 57 57 56 55 55 54 54 54 55 55 55 54 54 54 54 53 53 54 54 54 53 53 53 53 53 54 54 54 54 54 55 54 53
62 62 62 62 63 63 63 62 60 58 57 55 55 55 56 56 56 56 57 57 57 56 56 56 56 56 55 55 55 55 54 55 55 55 55 55 55 55 55 54 54 52
64 64 64 64 64 65 65 65 63 61 59 57 57 57 58 58 58 59 59 59 59 59 58 58 58 58 58 58 57 57 57 57 57 57 57 57 56 56 55 54 53 52
61 63 64 64 65 66 66 67 67 66 64 63 63 63 62 62 62 61 62 62 62 61 61 60 60 61 61 61 61 60 60 60 59 59 59 58 57 56 55 53 52 52
56 58 59 61 62 64 65 66 68 68 68 69 69 69 69 68 67 66 65 65 65 65 64 64 64 64 64 64 64 63 62 61 61 60 59 58 57 55 54 52 52 53
54 54 54 55 56 58 59 61 63 64 66 67 69 70 71 71 70 69 69 69 69 69 69 68 67 67 67 66 65 64 63 62 61 60 59 58 56 54 53 53 53 53
57 56 54 54 54 54 55 55 56 58 59 61 63 65 67 68 69 70 71 72 72 72 71 71 69 69 68 68 67 66 65 63 62 61 59 57 55 54 54 54 54 53
61 60 59 57 57 56 56 55 55 56 56 57 59 60 62 63 66 69 70 72 72 72 71 70 69 68 67 67 66 66 65 64 63 62 60 58 58 57 56 56 54 53
66 66 65 64 63 61 60 58 58 58 58 58 59 60 61 62 63 65 67 69 70 70 70 70 69 68 67 66 66 65 65 65 64 64 63 62 61 60 59 57 55 54
69 69 69 70 69 68 65 63 63 62 62 61 61 61 63 64 65 65 66 67 69 69 69 69 69 70 69 69 68 68 67 66 66 66 65 65 64 63 62 61 59 57
71 71 71 72 73 73 72 70 69 67 66 66 63 62 62 64 66 67 67 67 68 68 68 68 68 69 70 70 70 70 70 69 69 68 68 67 67 66 65 64 62 60
72 72 72 72 73 74 74 73 73 72 71 70 68 65 63 63 65 67 68 68 69 70 69 69 69 70 70 71 72 72 71 71 70 70 69 69 69 68 67 65 64 62
74 73 72 72 72 72 73 73 73 73 73 72 70 69 68 66 65 67 69 69 69 70 70 70 70 70 70 71 71 71 70 70 69 69 68 68 67 65 64 63 62 60
76 76 75 73 73 72 72 73 73 73 73 73 72 71 72 71 69 69 70 71 71 71 70 70 69 69 69 69 68 68 67 66 66 66 65 64 63 62 61 61 59 58
77 78 78 77 76 75 74 74 73 73 73 73 74 73 74 74 73 72 73 74 74 73 72 71 70 69 68 67 65 64 64 63 63 63 62 61 60 60 60 59 58 56

ECMWFNIL_500_spd_138.txt.gz
Wind_Speed
44 44 44 43 43 43 43 43 43 43 42 42 43 43 43 44 45 45 46 46 47 47 47 47 48 47 47 48 48 48 48 47 46 45 45 45 45 44 44 44 44 46
45 45 45 45 45 45 45 45 45 45 44 44 44 45 45 45 46 46 47 46 47 47 47 48 48 47 47 47 47 47 46 46 45 45 45 44 44 43 43 44 45 46
47 47 47 47 47 47 47 47 47 47 47 46 46 46 47 47 47 48 48 47 47 47 47 48 49 48 48 47 47 46 46 45 45 45 45 43 42 41 41 42 44 45
50 50 49 49 48 48 49 49 49 49 49 49 49 49 49 49 49 48 48 48 48 48 48 49 49 49 49 48 48 47 46 46 45 44 44 43 41 40 40 42 43 45
53 52 52 51 50 50 50 50 50 51 51 51 52 52 52 52 51 50 50 49 49 49 49 50 50 50 50 49 49 49 48 46 45 44 45 44 42 42 42 44 45 46
55 54 53 53 52 51 51 51 51 52 53 53 53 54 54 54 54 54 53 52 51 51 51 51 51 51 50 50 50 50 49 48 46 45 46 46 45 46 46 47 48 48
56 55 54 54 53 53 52 52 53 54 54 55 54 55 56 56 56 56 56 55 54 53 53 53 52 52 51 50 51 50 50 50 48 48 48 48 48 49 50 50 50 50
57 56 56 55 55 54 54 55 55 56 56 56 56 57 57 57 57 57 57 57 56 56 56 55 54 54 53 52 52 52 51 51 50 50 50 50 50 51 51 52 53 52
59 58 58 57 56 56 56 56 57 58 58 58 58 58 59 58 58 58 58 58 58 57 57 56 55 54 54 53 53 53 52 52 51 51 51 51 51 52 53 54 54 54
60 60 60 59 59 58 58 58 59 59 59 59 59 60 60 60 59 59 59 59 58 58 57 56 55 54 54 53 53 53 53 53 53 53 53 53 53 53 54 54 55 55
59 60 60 60 60 59 59 59 59 60 60 60 60 60 61 61 61 61 60 60 59 59 58 56 55 55 54 54 55 55 54 54 55 55 55 54 55 55 55 55 56 56
58 58 59 59 59 60 60 60 60 60 60 60 61 61 61 62 62 62 62 62 61 60 59 58 57 56 56 56 58 59 59 59 58 58 57 57 57 57 57 57 57 57
56 56 57 58 58 59 59 59 60 60 61 61 61 61 62 63 63 63 64 64 64 63 62 61 60 59 59 61 62 63 64 64 63 62 61 60 59 58 58 58 58 57
52 54 55 56 57 58 58 58 59 59 60 60 61 61 62 62 63 63 64 65 65 66 66 65 65 65 66 67 67 68 67 67 67 66 65 64 62 61 60 60 59 58
48 49 51 52 54 55 56 56 57 57 58 58 58 58 58 59 59 59 60 61 62 63 64 65 65 65 65 66 66 66 66 67 68 68 68 66 65 64 63 62 61 60
51 50 50 51 52 53 53 53 53 53 53 53 54 54 54 55 54 54 54 54 55 56 57 58 58 58 59 59 60 61 61 62 63 64 64 64 64 64 63 62 61 60
57 56 55 55 56 56 56 55 54 53 53 52 52 51 52 51 51 51 51 51 51 51 52 53 54 55 56 57 58 59 60 60 60 60 60 60 60 60 59 59 58 58
63 62 61 60 60 60 61 60 59 59 58 57 56 55 54 53 52 52 52 52 52 52 52 53 54 55 57 59 60 61 62 62 61 61 60 60 59 58 57 56 56 55
69 68 66 66 65 65 65 65 64 64 63 63 62 62 61 60 59 58 57 57 57 57 56 56 57 58 60 61 62 63 64 64 64 64 63 62 61 59 58 56 55 54
72 72 72 72 71 71 70 69 69 69 68 68 68 67 66 66 65 65 64 64 64 63 62 61 61 63 64 64 65 66 66 67 67 66 66 65 64 63 61 59 57 55
73 74 74 75 76 76 75 74 74 74 75 74 74 73 72 71 71 70 69 69 68 68 67 66 65 66 67 68 68 69 70 70 69 69 68 67 67 66 64 63 60 57
73 74 74 75 77 78 78 78 78 78 79 79 79 78 77 76 75 74 74 73 72 72 71 70 69 68 68 69 71 72 73 73 72 72 71 70 69 67 66 64 61 59
74 74 74 75 77 78 79 79 79 78 79 79 79 79 79 79 78 78 77 77 77 76 75 74 73 72 71 71 72 73 75 75 75 74 73 72 71 69 67 65 63 61
76 76 76 76 77 78 79 80 80 79 78 78 78 78 79 79 79 79 79 79 79 78 78 77 75 74 74 73 73 74 76 77 77 76 75 75 73 71 69 67 66 64
78 78 78 78 78 78 79 80 81 81 80 80 80 80 79 79 79 78 78 78 78 78 78 77 76 75 74 74 73 74 76 77 78 78 77 75 74 72 71 70 68 66
78 79 80 79 78 78 78 79 81 82 82 82 82 82 81 81 80 79 78 77 77 77 77 76 75 75 74 74 73 73 74 76 77 77 76 76 75 73 72 70 69 66

ECMWFNIL_500_spd_144.txt.gz
Wind_Speed
51 50 50 49 49 49 49 49 48 48 47 47 47 47 47 48 48 49 49 49 50 50 51 51 51 50 50 50 50 50 49 49 48 47 47 46 46 45 45 44 44 44
53 52 52 52 52 52 52 52 52 52 51 51 50 50 50 50 51 51 51 51 52 52 53 53 54 54 54 54 54 53 53 52 51 50 50 49 48 48 47 46 46 46
56 56 55 55 54 54 55 54 54 54 54 54 54 54 54 53 53 53 54 54 54 54 55 56 56 57 57 57 57 56 56 55 54 53 52 52 51 50 49 49 48 48
59 58 57 56 55 55 54 54 54 55 55 55 56 56 56 56 56 56 56 56 56 57 57 58 59 59 59 59 59 59 58 57 56 55 54 53 52 51 50 50 49 48
58 57 56 55 54 54 54 54 55 55 56 56 57 58 58 58 58 58 58 58 59 59 60 60 60 61 61 61 62 61 61 60 58 56 56 54 52 51 51 51 50 48
55 54 54 54 54 55 55 56 57 57 58 58 59 59 60 60 60 60 60 60 60 60 61 61 62 62 62 62 63 62 62 61 60 58 57 56 54 53 53 53 52 51
54 55 56 56 57 58 59 59 59 60 60 60 60 60 60 61 61 61 61 61 61 61 61 61 62 62 62 62 63 63 62 62 60 60 59 58 57 56 56 56 55 55
57 58 59 59 60 61 61 61 61 61 61 61 60 60 61 61 62 62 62 62 62 61 61 61 61 61 62 62 62 62 61 61 60 59 59 58 58 58 58 58 59 59
60 61 61 61 61 61 61 61 61 61 62 61 61 61 60 61 61 61 61 61 62 62 61 62 61 62 62 62 62 61 61 60 60 59 59 59 58 58 58 59 60 60
62 63 63 62 61 61 61 61 61 61 61 61 61 60 59 59 59 59 60 60 61 61 61 61 61 61 61 61 61 61 61 61 61 60 60 59 59 58 58 59 60 60
64 63 63 62 61 61 61 61 61 60 60 59 59 59 58 57 57 57 58 58 58 59 59 59 59 59 59 59 59 60 59 60 60 59 59 59 58 58 58 59 59 59
63 64 64 63 63 62 62 61 61 60 59 58 57 57 56 55 54 54 55 55 55 55 56 56 56 56 57 57 57 57 57 57 57 56 56 56 56 56 56 56 57 57
61 62 64 65 65 65 63 62 61 60 60 59 58 57 56 55 55 54 54 54 54 53 53 54 54 54 55 55 55 56 56 56 55 54 54 53 53 53 53 54 54 54
62 62 63 64 65 66 66 65 64 62 61 60 59 59 58 58 57 56 56 55 54 54 54 54 54 54 54 55 55 56 56 56 56 55 54 54 54 53 53 54 54 54
67 67 67 66 66 66 67 67 67 66 65 63 62 61 60 60 59 59 58 58 57 57 57 58 58 58 58 58 58 57 57 57 57 57 57 56 56 55 55 55 56 56
70 71 71 70 69 69 69 69 69 69 67 66 65 64 63 62 61 61 61 60 60 60 61 61 62 62 63 63 63 62 61 61 60 59 60 59 58 58 58 59 60 60
70 71 71 71 72 72 72 72 73 72 71 69 68 67 66 65 65 65 65 65 64 63 64 65 66 67 67 68 68 67 67 66 64 63 63 62 61 61 61 62 64 64
67 68 70 71 72 73 74 75 76 76 75 73 72 71 70 70 70 70 70 71 71 70 70 70 70 71 71 72 72 73 73 72 70 69 68 67 66 65 65 66 67 68
68 69 70 71 72 73 75 76 77 78 78 77 76 75 74 74 74 75 75 76 76 76 76 76 76 76 76 77 77 78 79 79 77 76 74 73 71 71 71 71 71 71
71 71 72 73 74 75 76 77 78 79 79 80 80 80 80 80 80 81 81 82 81 81 81 81 82 82 82 83 83 83 83 83 82 82 81 79 78 77 76 76 75 75
71 72 73 73 74 75 76 77 78 79 80 81 81 82 83 83 84 84 85 85 85 85 84 84 85 86 86 87 86 86 85 85 84 84 84 84 83 83 82 81 80 80
66 67 69 70 72 73 74 75 76 78 79 81 82 83 84 84 84 84 84 85 85 86 86 87 87 88 88 88 88 88 87 87 86 85 85 85 85 85 85 84 84 84
62 63 64 65 67 68 70 71 73 74 76 78 80 81 83 85 85 86 86 86 87 87 88 88 89 89 89 88 88 87 87 87 87 87 86 85 85 85 85 85 85 86
62 63 64 64 65 66 66 67 69 70 72 75 76 78 80 82 83 85 86 88 89 89 89 89 89 90 90 89 89 88 88 87 87 88 88 87 87 86 86 86 86 86
65 66 67 67 67 67 68 68 68 68 69 71 73 75 77 79 80 81 83 85 87 88 89 89 89 89 90 90 89 89 89 89 89 89 88 89 89 89 89 88 88 87
69 69 70 69 69 69 69 69 70 70 70 70 71 72 74 76 78 80 80 82 84 85 86 87 87 88 88 89 88 88 88 87 87 88 88 88 89 89 89 89 89 89